M-4S R/B

基本信息
目录编号:
5498
目录名称:
M-4S R/B
国际标识:
1971-080B
轨道中心:
EARTH
物体状态:
在轨
发射日期:
1971-09-28 UTC
国别:
日本 (JP)
轨道信息
数据来源: 国际轨道数据
星历时间: 2026-07-13T07:18:39+0800
半长轴: 7685.571km
偏心率: 0.0574122
轨道倾角: 32.034°
近地点辐角: 297.553°
升交点赤经: 16.867°
平近点角: 56.788°
近地点: 866.188km
远地点: 1748.68km
周期: 111.757分钟
每日圈数: 12.885123
详细信息
发射场:
KSCUT
轨道高度:
LEO
数据来源:
AOE Integration Group
参考系:
TEME
时间系统:
UTC
历元类型:
SGP4
2D轨道图
3D轨道图
轨道高度分析图
轨道倾角分析图
轨道综合分析图
查看轨道综合分析图